sat.trackr.live / text

‹ back to catalog

STARLINK-3560

NORAD 51859 · 2022-022H

PAYLOAD ACTIVE UNKNOWN

§ Identity

Operator
Country
US
Launch date
2022-03-03
Launch site
AFETR
Launch vehicle
Mass (kg)
RCS (m²)

Purposes: comms

External: N2YO · Heavens-Above · Gunter

§ Orbital elements

Epoch: 2026-05-24T23:08:44.623104Z

Period
95.44 min
Inclination
53.2137°
Eccentricity
0.0001713
Mean motion
15.08841874 rev/d
Perigee alt
538.6 km
Apogee alt
540.9 km
Semi-major
6,917.9 km
B*
-5.7043e-5
RAAN
26.7174°
Arg perigee
89.0165°
Mean anomaly
271.1023°
Rev number
23,467

§ Raw data

STARLINK-35601 51859U 22022H   26144.96440536 -.00001196  00000+0 -57043-4 0  99912 51859  53.2137  26.7174 0001713  89.0165 271.1023 15.08841874234673

JSON: /api/v1/satellites/51859 · /tle

For live sub-satellite position, see the globe view (requires WebGL).

§ Visibility from observer

Set your observer location to see the next 7 days of passes ≥ 10°. The values pass through the URL so the page stays shareable.

No JS? Fill the form by hand. The geolocation button needs JavaScript.